Location: Saint Louis
(38.6272°N, 90.1978°W)
Time: 01:12:54
(UTC-05:00)

ISS - Pass Details

Date: 13 November 2013
Orbit: 401 x 404 km, 51.6° (Epoch: 24 July)

Event Time Altitude Azimuth Distance (km) Brightness Sun altitude
Rises 13:14:07 0° 295° (WNW) 2,344 0.5 29.7°
Reaches altitude 10° 13:16:34 10° 278° (W) 1,483 -0.2 29.5°
Drops below altitude 10° 13:21:35 10° 180° (S) 1,485 0.7 29.1°
Enters shadow 13:57:30 -70° 123° (ESE) 12,416 3.9 25.5°
Exits shadow 14:28:24 -48° 329° (NNW) 10,062 3.4 21.7°
